RH
6 5 4 3 6 10 19 37 60 61 66 69 71 74 79 95 82 89 96 97 94 96 95 96 86 87 71 52 59 61 58 68 67 68 66 53 52 48 43 44 58 53 44
5 7 6 4 7 11 25 38 55 64 55 83 83 86 90 96 96 92 93 93 87 95 96 96 90 95 77 57 55 61 68 69 70 76 76 72 58 52 47 51 51 54 57
5 7 7 5 10 23 29 62 72 61 49 53 69 76 75 78 74 97 96 95 88 96 96 95 96 96 92 73 31 34 40 42 51 64 73 72 60 63 59 57 56 60 63
6 7 8 5 12 58 82 89 80 55 42 43 62 68 73 72 73 95 96 96 95 96 96 94 84 93 79 55 39 42 39 37 50 60 69 73 68 72 64 52 56 58 62
7 8 8 6 10 60 71 70 54 56 50 56 69 80 92 95 96 96 96 96 97 96 96 93 72 80 62 58 29 27 24 27 40 52 66 71 76 90 78 78 66 63 62
7 8 8 6 6 60 69 61 42 48 53 66 81 91 91 96 96 95 96 96 96 96 95 80 62 46 49 45 26 27 25 24 28 39 52 64 74 78 75 68 68 58 56
7 8 8 7 6 60 63 61 45 56 61 71 87 91 96 94 95 97 94 96 97 96 80 56 53 35 29 27 27 29 26 21 21 29 40 45 54 66 45 48 60 53 47
7 8 7 8 5 53 68 69 37 59 85 75 89 96 98 96 94 95 96 96 95 97 72 57 56 43 29 26 28 30 31 25 25 23 29 35 41 48 53 43 44 46 40
7 6 5 7 5 28 75 61 66 43 82 92 94 93 96 97 95 91 96 96 96 96 93 86 71 48 28 27 30 30 34 29 28 32 29 27 28 29 30 37 35 26 24
7 7 5 6 4 14 80 74 70 68 80 84 93 96 96 97 94 98 98 97 96 93 95 96 95 64 30 30 32 32 37 38 35 42 43 38 32 27 25 24 24 24 23
8 8 6 5 4 4 50 72 73 77 84 93 93 89 96 95 96 96 96 97 96 96 95 98 98 75 30 34 35 38 41 47 52 47 43 37 37 38 35 33 31 30 29
8 7 7 5 4 4 5 42 77 76 91 92 97 97 92 96 96 94 91 94 94 96 96 98 93 39 39 39 40 42 46 48 49 43 34 27 22 22 24 25 22 19 19
13 8 7 7 5 5 4 12 65 87 91 88 90 91 96 94 92 75 75 91 92 95 95 97 93 94 74 53 46 49 53 50 42 31 20 13 9 9 9 8 5 4 4
15 10 7 7 6 5 6 5 7 49 98 92 93 82 94 91 74 80 80 79 92 97 95 95 95 95 83 59 51 55 50 39 26 15 10 8 6 5 3 3 3 3 4
15 15 10 8 6 6 6 5 4 8 40 86 77 86 87 89 92 83 74 82 93 96 96 98 96 93 85 61 56 48 33 22 13 8 5 4 4 4 4 4 5 5 5
15 14 16 10 8 6 5 6 5 5 6 16 27 52 48 66 77 95 98 97 99 98 97 96 98 96 82 62 48 24 16 11 6 4 3 4 6 6 6 6 6 6 6
18 16 16 17 13 9 8 6 6 6 4 5 6 20 22 27 35 47 79 97 96 98 94 97 97 94 94 83 60 17 11 6 4 4 5 6 9 8 8 6 6 6 6
21 22 21 18 17 16 12 9 8 6 6 5 5 6 9 12 23 32 41 54 74 91 88 58 51 48 67 56 18 14 8 4 5 8 10 11 10 9 8 7 7 6 7
21 25 28 27 21 17 17 18 13 8 7 5 7 6 6 6 8 15 25 38 54 57 62 73 68 67 24 18 15 10 6 4 7 10 11 12 11 10 10 9 8 9 9
18 20 21 28 29 23 18 18 18 18 10 8 6 6 7 5 6 7 8 11 19 28 37 56 85 83 73 37 12 11 10 4 5 10 12 13 12 11 11 12 12 11 11
16 15 17 19 25 29 26 21 22 21 19 16 9 8 5 6 9 6 5 6 7 7 10 16 25 18 17 16 30 13 4 4 6 8 11 12 12 12 12 12 12 14 15
19 18 19 18 19 24 28 31 29 31 29 24 20 17 12 8 6 6 9 8 6 6 6 6 6 6 7 6 5 4 3 3 4 7 9 10 11 11 10 10 10 13 16
28 22 21 21 18 22 25 29 44 45 38 30 28 25 23 19 14 9 6 5 7 8 8 6 5 4 4 4 4 4 3 3 3 4 5 7 8 8 8 8 8 8 7
34 28 24 24 21 20 25 32 44 45 44 38 30 27 25 24 22 18 16 11 8 7 6 7 9 9 8 6 5 5 4 4 4 4 5 5 6 6 7 7 7 7 6
36 32 28 26 23 21 25 28 35 36 37 41 40 36 32 31 30 28 26 23 20 16 11 8 7 7 6 7 9 10 10 10 9 8 8 8 8 8 8 7 6 6 6
38 34 30 28 25 23 24 27 35 32 28 31 37 40 42 40 36 34 32 30 29 26 24 21 15 12 11 8 8 8 8 7 7 7 6 6 6 6 6 5 6 6 7
Wind_Speed
20 19 23 25 26 25 27 27 25 24 25 26 26 27 30 23 26 23 29 36 32 30 27 23 19 18 17 16 15 14 14 15 14 14 14 13 11 11 10 8 8 8 9
20 21 24 26 24 24 27 29 24 21 26 27 27 28 31 23 21 26 30 30 30 32 29 24 20 20 20 17 15 15 15 15 15 15 14 15 13 12 11 10 9 9 9
19 20 24 25 23 24 27 26 24 18 26 29 30 32 32 28 26 23 32 32 33 28 22 24 23 23 21 18 16 16 15 15 16 16 15 15 13 13 12 10 9 9 9
19 20 23 24 21 22 22 20 17 17 23 29 31 33 32 29 29 20 27 30 27 25 21 26 25 20 21 19 17 16 16 15 14 14 15 15 14 13 12 11 10 10 9
19 20 23 23 22 23 20 19 15 16 22 28 29 31 33 30 28 28 28 29 28 24 21 30 26 23 23 21 19 15 14 14 15 15 15 15 15 13 13 12 11 10 10
18 21 22 22 22 20 19 19 14 18 23 27 27 29 29 29 22 22 20 38 32 26 29 30 27 25 24 23 20 17 16 16 16 17 16 15 15 15 13 12 12 12 11
19 20 22 21 20 17 20 16 15 17 22 25 23 24 34 21 18 28 19 13 16 27 32 32 29 27 27 25 22 19 17 16 15 15 16 15 15 15 14 14 13 13 13
19 20 20 20 15 19 17 11 13 17 12 23 22 49 31 28 20 16 20 18 15 18 34 33 32 30 29 27 23 21 19 17 17 17 16 16 15 15 16 15 14 14 14
18 18 19 18 15 16 16 8 10 13 15 20 20 26 34 25 22 20 20 17 14 9 26 36 38 33 31 29 25 23 19 20 20 17 17 16 16 15 15 16 16 16 15
17 18 19 18 15 11 13 13 12 18 16 16 10 18 34 26 21 24 25 33 21 17 24 32 37 39 32 29 27 25 22 23 22 20 19 19 18 18 18 17 18 18 17
17 18 17 18 15 12 10 15 17 15 14 10 8 18 31 18 16 24 26 23 19 17 22 28 37 35 34 31 30 26 24 24 22 22 21 20 21 22 21 21 21 20 19
17 18 17 15 16 16 12 11 15 16 14 14 12 14 13 24 22 22 23 24 22 20 24 34 41 36 33 32 30 26 25 25 24 24 23 23 23 24 22 22 22 21 20
16 18 18 16 14 15 14 11 10 16 12 13 11 14 16 24 29 29 26 24 25 24 26 36 41 38 33 32 30 28 28 27 27 26 26 25 24 24 23 22 21 20 19
16 17 18 17 15 14 13 13 10 10 12 11 8 10 14 17 24 27 28 29 30 30 29 36 34 33 35 32 30 28 29 29 28 27 26 28 27 25 23 22 22 23 22
19 16 17 18 17 14 14 13 11 8 9 11 9 8 8 22 28 29 23 25 28 33 35 34 36 38 34 31 30 28 29 28 28 28 28 27 26 25 25 24 24 24 24
20 21 17 19 21 18 15 15 14 11 11 10 11 12 9 7 5 16 25 36 36 37 36 37 41 39 35 29 28 29 30 31 30 30 29 28 27 28 27 26 25 26 27
25 21 19 20 20 22 19 18 17 16 16 13 13 14 12 9 10 10 12 28 41 38 29 29 37 35 29 27 28 30 30 31 31 30 28 29 28 28 28 28 28 29 29
28 27 24 21 22 20 22 22 21 20 19 18 18 17 15 15 17 16 17 16 17 17 21 24 24 23 25 29 32 33 33 34 34 32 31 31 31 31 30 30 30 30 32
35 33 30 27 26 26 24 23 22 22 22 21 21 22 20 21 21 21 22 23 24 26 25 26 26 27 30 32 34 36 36 36 35 35 34 34 33 33 33 33 33 34 35
39 38 38 34 30 29 29 28 26 25 25 26 26 25 26 25 25 26 26 26 30 32 32 33 33 32 33 34 35 38 41 38 38 37 36 36 35 37 37 37 38 39 39
44 42 40 39 38 34 32 32 31 30 30 31 32 31 29 28 29 30 31 32 34 35 37 38 40 40 39 39 40 41 41 41 40 40 40 38 39 40 40 40 41 41 41
45 46 45 43 42 41 36 34 35 34 33 33 32 32 34 34 34 34 35 36 36 36 37 37 40 40 40 40 40 43 43 43 44 44 44 44 44 44 44 43 44 44 43
46 47 48 48 46 44 42 40 37 36 35 35 35 37 38 40 41 41 41 39 37 38 38 38 40 40 41 42 43 44 45 45 47 48 48 48 49 48 48 49 48 48 49
49 49 48 49 49 48 46 43 41 40 39 39 41 43 44 44 44 44 45 45 44 43 41 41 42 43 44 45 45 47 48 48 48 49 50 51 51 52 52 53 52 53 54
48 50 50 49 50 50 50 49 46 43 43 43 44 46 47 48 47 47 47 47 49 50 49 48 47 47 46 46 47 49 49 50 51 52 53 54 54 53 54 55 55 53 54
43 46 49 50 50 52 52 53 50 47 46 46 47 49 50 51 51 51 51 51 52 54 55 56 55 53 51 53 53 51 50 52 52 52 54 54 56 56 57 58 57 57 57
Wind_Direction
298 300 298 299 292 291 294 294 290 257 242 237 235 238 236 239 243 246 223 215 201 207 208 208 201 195 188 181 183 182 179 179 181 180 182 182 179 174 176 174 167 155 150
294 300 302 301 299 291 292 288 285 271 243 227 228 232 238 239 233 246 207 190 201 210 211 201 197 190 184 180 177 177 180 180 177 180 183 184 186 187 185 182 176 175 172
298 301 302 302 302 291 286 287 279 259 244 232 230 235 241 242 241 234 217 208 206 206 205 198 197 193 178 179 180 180 183 186 182 183 183 183 183 187 187 189 187 184 186
299 300 301 305 300 299 298 284 276 248 238 231 229 233 234 234 234 197 199 199 193 200 206 197 201 188 182 182 182 180 187 190 186 184 183 185 187 189 193 196 197 197 198
299 299 305 306 303 310 305 284 264 240 226 227 233 232 229 234 229 216 223 207 203 197 204 200 198 192 189 188 188 190 191 191 190 189 187 185 181 180 185 185 188 193 196
298 298 302 304 305 313 301 286 262 233 226 228 229 228 230 230 232 211 213 206 200 200 202 200 198 197 196 195 190 191 194 193 190 190 191 191 189 186 188 184 192 194 195
302 298 299 304 308 304 304 303 260 239 232 233 238 211 218 216 218 206 199 242 217 210 196 200 203 202 202 199 195 194 199 199 197 191 196 197 197 191 196 199 200 200 202
305 295 296 299 308 296 310 306 268 220 271 236 233 190 198 201 218 223 236 225 230 217 200 203 206 204 203 202 200 199 203 206 205 202 203 201 206 206 206 211 217 213 211
305 297 296 291 299 297 304 287 265 235 252 223 223 237 218 216 218 249 215 239 254 242 213 219 212 205 205 203 205 206 206 211 213 215 213 210 212 214 217 219 219 220 220
303 300 299 287 292 302 290 287 265 242 252 256 263 226 207 206 231 238 231 234 272 260 226 228 216 202 207 208 209 210 210 216 216 217 223 221 220 222 221 226 231 231 231
301 301 305 292 290 290 283 276 272 262 254 255 238 216 226 222 223 235 240 240 257 265 229 227 209 196 207 210 213 213 213 218 223 223 226 227 225 227 227 229 233 237 237
290 296 302 300 295 295 301 293 275 253 266 263 239 245 270 231 236 225 235 242 246 263 240 217 201 202 208 213 217 217 220 222 224 227 228 229 231 231 231 232 235 235 235
281 283 295 300 298 296 295 296 278 265 268 276 255 252 259 233 228 241 246 252 254 252 233 230 215 197 209 214 219 220 223 224 226 228 228 231 232 232 230 228 227 228 227
278 274 280 292 294 291 291 291 299 315 262 265 256 253 238 224 226 242 249 249 255 244 236 213 218 208 211 218 222 223 227 229 230 231 231 232 228 228 223 224 226 230 233
271 274 271 276 284 286 289 287 288 284 298 272 294 280 260 246 249 249 249 243 249 239 224 230 222 210 209 220 225 226 231 232 234 233 231 229 230 232 231 231 234 238 240
273 267 265 262 267 273 275 278 277 270 259 269 275 265 269 263 259 254 242 242 234 221 228 228 220 211 212 215 226 230 231 233 229 229 229 231 234 238 239 241 243 243 242
271 271 265 259 261 261 268 276 280 278 270 261 255 258 263 250 242 252 238 225 216 203 206 211 217 213 214 223 231 238 234 235 234 232 233 238 242 245 246 245 245 243 243
271 268 264 258 256 256 260 259 265 271 266 261 257 247 242 250 246 235 234 232 236 242 226 219 219 229 235 234 239 238 235 232 233 236 238 240 242 246 248 250 249 249 247
268 268 264 257 251 252 250 254 255 253 266 266 258 256 249 240 239 243 239 236 233 237 240 242 240 237 244 242 244 244 239 235 237 238 241 242 245 248 250 251 251 252 252
261 264 268 266 256 249 249 248 247 250 246 252 258 257 253 250 245 240 239 237 239 240 242 244 244 246 247 252 251 243 244 241 239 242 245 248 251 251 251 253 255 255 255
267 265 263 265 265 258 248 244 245 243 241 245 249 252 257 258 254 248 244 240 236 236 240 242 244 248 250 247 245 248 244 244 244 246 250 250 252 254 256 258 258 259 260
260 264 266 263 263 262 257 247 241 244 247 246 246 250 253 254 255 256 253 249 247 244 243 242 245 247 246 248 247 246 247 248 248 250 251 252 255 257 259 261 261 261 262
258 257 260 263 261 260 258 254 248 246 246 250 249 246 244 246 248 250 253 256 254 253 251 250 248 246 247 247 248 249 250 250 251 251 253 256 258 260 260 261 261 263 264
260 258 257 259 260 259 258 255 253 252 249 244 244 245 246 246 246 250 253 254 256 257 256 253 254 254 251 250 249 251 251 253 255 256 257 257 259 262 263 263 264 264 265
257 257 256 254 255 257 258 258 255 253 252 251 247 245 246 246 246 247 248 249 251 253 253 254 252 253 254 256 255 254 255 256 255 256 257 260 260 260 261 261 262 263 264
257 256 255 255 255 254 255 257 258 256 255 253 251 251 250 249 248 247 248 249 250 250 251 252 252 252 253 254 255 257 259 258 258 259 258 259 260 261 260 260 260 261 262